Other Public Products
Issued by NWS Charleston, SC

Current Version | Previous Version | Text Only | Print | Product List | Glossary Off
Versions: 1 2 3 4 5 6 7 8 9 10 11 12 13 14 15 16 17 18 19 20 21 22 23 24 25 26 27 28 29 30 31 32 33 34 35 36 37 38 39 40 41 42 43 44 45 46 47 48 49 50

504
FPUS82 KCHS 250727
OPUCHS

TEST...KCHS/KSAV Gateway Observations...TEST
National Weather Service Charleston SC
300 AM EDT SAT MAR 25 2017

NOTE: "fair" indicates few or no clouds below 12,000 feet with no
significant weather and/or obstructions to visibility.

SCZ050-WAZ558-NCZ071-TXZ119-213-PAZ071-DCZ001-FLZ074-172-MI076-
NYZ176-178-MAZ016-IL014-TNZ027-NJZ106-GAZ044-MD014-250800-

...Gateway Observations for Charleston International...

CITY           SKY/WX    TMP DP  RH WIND       PRES   REMARKS
Chas Airport   CLOUDY    61  55  81 CALM      30.33F
Seattle        PTCLDY    45  42  89 S9        30.03R
Charlotte      CLOUDY    58  47  66 S8        30.32F
Dallas DFW     CLEAR     64  45  49 W25G37    29.87R
Dallas Love    CLEAR     64  43  46 W15G26    29.88R
Philladelphia  MOCLDY    47  26  44 W7        30.13F
Wash National  MOCLDY    57  48  72 S12       30.16F
Baltimore      CLOUDY    60  47  61 SW10      30.13F
Miami          PTCLDY    70  62  76 NE8       30.17F
Detroit        CLOUDY    47  38  71 NE8       30.10S
Newark         CLOUDY    50  34  54 SW10      30.08F
Laguardia      MOCLDY    55  34  45 SW9       30.07F
J F K          CLOUDY    43  40  89 S9        30.09F
Boston Logan   MOCLDY    45  33  63 SW6       30.06F
Ft. Lauderdale MOCLDY    73  61  65 E17       30.17F
Chicago O`Hare CLOUDY    42  36  79 NE12      30.07R
Chicago Midway CLOUDY    40  37  89 N17G24    30.08R WCI  31
Houston Bush   MOCLDY    68  61  78 S7        29.95S
Houston Hobby  CLOUDY    71  63  75 CALM      29.97S
Nashville      MOCLDY    62  51  67 SE7       30.10F
Atlanta        CLOUDY    61  49  64 SE10      30.25F

$$

GAZ044-118-TXZ119-213-NCZ071-DCZ001-MDZ014-506-PAZ021-071-NJZ106-
NYZ176-178-MAZ106-OHZ011-021-055-MIZ076-KYZ091-ILZ014-INZ047-
MNZ060-ONZ431-250800-

...Gateway Observations for Savannah International...

CITY           SKY/WX    TMP DP  RH WIND       PRES   REMARKS
Savannah Arpt  CLOUDY    59  54  83 E3        30.32F
Atlanta        CLOUDY    61  49  64 SE10      30.25F
Charlotte      CLOUDY    58  47  66 S8        30.32F
Dallas DFW     CLEAR     64  45  49 W25G37    29.87R
Houston Bush   MOCLDY    68  61  78 S7        29.95S
Wash National  MOCLDY    57  48  72 S12       30.16F
Wash Dulles    CLOUDY    59  45  59 S12       30.15F
Baltimore      CLOUDY    60  47  61 SW10      30.13F
Philadelphia   MOCLDY    47  26  44 W7        30.13F
Newark         CLOUDY    50  34  54 SW10      30.08F
Laguardia      MOCLDY    55  34  45 SW9       30.07F
J F K          CLOUDY    43  40  89 S9        30.09F
Boston         MOCLDY    45  33  63 SW6       30.06F
Pittsburg      CLOUDY    65  52  62 W5        30.12S
Akron          MOCLDY    62  50  64 SW5       30.10S
Cleveland      MOCLDY    58  47  66 CALM      30.10R
Cincinnati     CLOUDY    60  52  74 S8        30.12F
Columbus       MOCLDY    61  52  71 S12       30.11S
Detroit        CLOUDY    47  38  71 NE8       30.10S
Chicago O`Hare CLOUDY    42  36  79 NE12      30.07R
Minneapolis    CLOUDY    38  31  76 NE9       30.18F WCI  31
Indianapolis   MOCLDY    62  51  67 S9        30.04F
Toronto Canada CLOUDY    39  36  87 NE8       30.14S WCI  34

$$




USA.gov is the U.S. government's official web portal to all federal, state and local government web resources and services.